GW6351 Weather Reports


Display with metric or nautical units.
time (UTC)temp
F
wind
direction
speed
MPH
gust
MPH
rain 1hr
in
rain 24hr
in
rain mn
in
humidity
%
barometer
mb
20260506002012 66 63 2.0 7.0 0.00 0.00 0.00 40 1012.0
20260506001536 66 58 3.0 7.0 0.00 0.00 0.00 41 1012.0
20260506001014 65 301 0.0 3.0 0.00 0.00 0.00 40 1012.1
20260506000511 65 289 1.0 2.0 0.00 0.00 0.00 40 1012.1
20260506000040 66 323 1.0 3.0 0.00 0.00 0.00 39 1012.2
20260505235511 66 323 1.0 5.0 0.00 0.00 0.00 39 1012.1
20260505235011 67 355 2.0 5.0 0.00 0.00 0.00 40 1012.1
20260505234535 67 296 2.0 6.0 0.00 0.00 0.00 39 1012.0
20260505234015 68 42 2.0 8.0 0.00 0.00 0.00 39 1012.1
20260505233514 67 119 3.0 8.0 0.00 0.00 0.00 39 1012.0
20260505233030 67 56 3.0 10.0 0.00 0.00 0.00 39 1012.0
20260505232517 67 46 4.0 10.0 0.00 0.00 0.00 38 1012.2
20260505232015 66 100 3.0 10.0 0.00 0.00 0.00 40 1012.2
20260505231534 65 112 6.0 9.0 0.00 0.00 0.00 41 1012.1
20260505231012 65 88 4.0 8.0 0.00 0.00 0.00 40 1012.2
20260505230513 64 86 2.0 4.0 0.00 0.00 0.00 40 1012.2
20260505230036 64 24 1.0 4.0 0.00 0.00 0.00 40 1012.3
20260505225512 64 31 2.0 4.0 0.00 0.00 0.00 39 1012.4
20260505225015 65 355 1.0 5.0 0.00 0.00 0.00 39 1012.4
20260505224535 65 340 1.0 6.0 0.00 0.00 0.00 38 1012.6
20260505224013 66 355 3.0 6.0 0.00 0.00 0.00 37 1012.3
20260505223515 67 62 3.0 6.0 0.00 0.00 0.00 37 1012.4
20260505223035 67 341 3.0 8.0 0.00 0.00 0.00 37 1012.4
20260505222512 66 22 3.0 8.0 0.00 0.00 0.00 37 1012.5
20260505222014 65 27 1.0 5.0 0.00 0.00 0.00 38 1012.4
20260505221530 66 24 3.0 6.0 0.00 0.00 0.00 37 1012.5
20260505221010 66 36 2.0 6.0 0.00 0.00 0.00 37 1012.5
20260505220513 67 13 3.0 5.0 0.00 0.00 0.00 36 1012.5
20260505220038 68 80 3.0 6.0 0.00 0.00 0.00 35 1012.5
20260505215512 67 15 3.0 9.0 0.00 0.00 0.00 36 1012.5
20260505215010 68 360 5.0 10.0 0.00 0.00 0.00 34 1012.7
20260505214549 68 5 5.0 10.0 0.00 0.00 0.00 36 1012.6
20260505214015 68 11 3.0 9.0 0.00 0.00 0.00 36 1012.5
20260505213515 67 38 3.0 6.0 0.00 0.00 0.00 37 1012.8
20260505213033 67 334 3.0 6.0 0.00 0.00 0.00 37 1013.0
20260505212514 66 347 3.0 6.0 0.00 0.00 0.00 39 1012.7
20260505212013 66 319 3.0 6.0 0.00 0.00 0.00 39 1012.7
20260505211534 65 34 2.0 5.0 0.00 0.00 0.00 41 1012.7
20260505211014 65 5 3.0 6.0 0.00 0.00 0.00 39 1012.8
20260505210514 65 52 2.0 6.0 0.00 0.00 0.00 39 1012.7
20260505210036 66 47 2.0 8.0 0.00 0.00 0.00 37 1012.7
20260505205514 66 68 3.0 8.0 0.00 0.00 0.00 38 1012.5
20260505205014 66 355 2.0 9.0 0.00 0.00 0.00 38 1012.7
20260505204533 67 311 3.0 9.0 0.00 0.00 0.00 36 1012.7
20260505204014 68 355 3.0 8.0 0.00 0.00 0.00 36 1012.8
20260505203518 68 84 3.0 7.0 0.00 0.00 0.00 36 1012.7
20260505203029 68 57 4.0 12.0 0.00 0.00 0.00 37 1012.8
20260505202514 69 26 5.0 12.0 0.00 0.00 0.00 34 1012.8
20260505202015 68 22 3.0 6.0 0.00 0.00 0.00 37 1012.8
20260505201531 68 46 2.0 6.0 0.00 0.00 0.00 38 1012.8
20260505201014 67 29 3.0 5.0 0.00 0.00 0.00 38 1012.7
20260505200512 66 64 3.0 5.0 0.00 0.00 0.00 40 1012.7
20260505200055 64 28 2.0 5.0 0.00 0.00 0.00 40 1012.9
20260505195515 64 9 2.0 5.0 0.00 0.00 0.00 40 1013.0
20260505195014 64 355 3.0 6.0 0.00 0.00 0.00 41 1012.9
20260505194538 63 355 2.0 6.0 0.00 0.00 0.00 41 1012.8
20260505194013 63 310 2.0 5.0 0.00 0.00 0.00 39 1012.8
20260505193518 64 304 2.0 5.0 0.00 0.00 0.00 38 1012.9
20260505193038 64 275 2.0 5.0 0.00 0.00 0.00 38 1012.8
20260505192519 64 263 1.0 4.0 0.00 0.00 0.00 37 1012.9
20260505192013 65 333 2.0 5.0 0.00 0.00 0.00 36 1012.9
20260505191543 65 305 3.0 5.0 0.00 0.00 0.00 36 1012.7
20260505191011 64 355 1.0 6.0 0.00 0.00 0.00 36 1012.8
20260505190514 65 328 2.0 6.0 0.00 0.00 0.00 35 1012.8
20260505190040 64 69 1.0 6.0 0.00 0.00 0.00 35 1012.7
20260505185516 65 355 2.0 6.0 0.00 0.00 0.00 36 1012.7
20260505185017 65 22 3.0 6.0 0.00 0.00 0.00 35 1012.7
20260505184537 66 350 3.0 6.0 0.00 0.00 0.00 35 1012.7
20260505184014 65 302 1.0 6.0 0.00 0.00 0.00 37 1012.7
20260505183512 65 12 3.0 6.0 0.00 0.00 0.00 37 1012.7
20260505183052 65 316 3.0 5.0 0.00 0.00 0.00 38 1012.7
20260505182516 64 346 1.0 5.0 0.00 0.00 0.00 36 1012.8
20260505182015 64 19 2.0 5.0 0.00 0.00 0.00 38 1012.8
20260505181539 64 284 2.0 6.0 0.00 0.00 0.00 37 1012.7
20260505181012 64 329 2.0 6.0 0.00 0.00 0.00 38 1012.7
20260505180515 64 331 2.0 5.0 0.00 0.00 0.00 36 1012.8
20260505180046 64 333 3.0 5.0 0.00 0.00 0.00 37 1012.9
20260505175513 63 306 2.0 5.0 0.00 0.00 0.00 36 1012.7
20260505175013 62 344 2.0 6.0 0.00 0.00 0.00 36 1012.7
20260505174545 63 300 2.0 6.0 0.00 0.00 0.00 37 1012.6
20260505174015 62 339 2.0 5.0 0.00 0.00 0.00 37 1012.5
20260505173517 62 323 1.0 6.0 0.00 0.00 0.00 37 1012.5
20260505173037 62 298 3.0 6.0 0.00 0.00 0.00 36 1012.6
20260505172513 62 309 1.0 5.0 0.00 0.00 0.00 37 1012.5
20260505172015 62 321 2.0 4.0 0.00 0.00 0.00 37 1012.4
20260505171548 62 288 2.0 4.0 0.00 0.00 0.00 36 1012.3
20260505171012 62 324 2.0 5.0 0.00 0.00 0.00 37 1012.3
20260505170514 62 305 2.0 5.0 0.00 0.00 0.00 40 1012.4
20260505170052 61 247 2.0 5.0 0.00 0.00 0.00 37 1012.5
20260505165514 61 301 3.0 5.0 0.00 0.00 0.00 36 1012.5
20260505165014 61 254 2.0 5.0 0.00 0.00 0.00 36 1012.4
20260505164538 61 295 3.0 5.0 0.00 0.00 0.00 38 1012.2
20260505164016 61 271 2.0 4.0 0.00 0.00 0.00 37 1012.1
20260505163515 61 286 1.0 5.0 0.00 0.00 0.00 38 1012.1
20260505163038 61 307 2.0 5.0 0.00 0.00 0.00 36 1012.1
20260505162511 61 287 2.0 4.0 0.00 0.00 0.00 38 1012.0
20260505162013 61 280 1.0 4.0 0.00 0.00 0.00 38 1011.9
20260505161537 61 300 2.0 4.0 0.00 0.00 0.00 37 1012.2
20260505161015 60 286 2.0 4.0 0.00 0.00 0.00 40 1012.2
20260505160516 60 254 2.0 4.0 0.00 0.00 0.00 41 1012.0
20260505153040 59 290 1.0 4.0 0.00 0.00 0.00 40 1011.9
20260505152511 59 269 2.0 4.0 0.00 0.00 0.00 41 1011.7
20260505152016 59 296 2.0 4.0 0.00 0.00 0.00 40 1011.7
20260505151538 58 297 1.0 4.0 0.00 0.00 0.00 41 1011.6
20260505151015 58 321 1.0 4.0 0.00 0.00 0.00 44 1011.6
20260505150520 58 329 1.0 3.0 0.00 0.00 0.00 43 1011.6
20260505140516 56 232 1.0 3.0 0.00 0.00 0.00 44 1011.1
20260505125018 55 222 2.0 5.0 0.00 0.00 0.00 46 1010.5
20260505124543 55 227 2.0 5.0 0.00 0.00 0.00 46 1010.4
20260505124014 55 252 3.0 5.0 0.00 0.00 0.00 46 1010.4
20260505123524 55 217 3.0 5.0 0.00 0.00 0.00 46 1010.3
20260505123052 55 238 2.0 5.0 0.00 0.00 0.00 46 1010.4
20260505122519 55 223 3.0 6.0 0.00 0.00 0.00 46 1010.2
20260505122234 55 212 3.0 6.0 0.00 0.00 0.00 46 1010.2
20260505121539 55 197 3.0 7.0 0.00 0.00 0.00 46 1010.2
20260505121012 55 231 3.0 7.0 0.00 0.00 0.00 46 1010.2
20260505120512 55 225 3.0 6.0 0.00 0.00 0.00 46 1010.2
20260505120043 55 221 3.0 7.0 0.00 0.00 0.00 46 1010.1
20260505115508 55 250 4.0 7.0 0.00 0.00 0.00 46 1010.1
20260505115009 55 224 3.0 6.0 0.00 0.00 0.00 46 1010.1
20260505114544 55 246 3.0 8.0 0.00 0.00 0.00 46 1010.1
20260505114011 55 235 4.0 8.0 0.00 0.00 0.00 46 1010.1
20260505113509 55 229 3.0 9.0 0.00 0.00 0.00 46 1010.2
20260505113035 55 250 4.0 9.0 0.00 0.00 0.00 46 1010.1
20260505112510 54 225 4.0 6.0 0.00 0.00 0.00 46 1010.1
20260505112011 54 265 3.0 7.0 0.00 0.00 0.00 46 1010.1
20260505111532 54 246 3.0 8.0 0.00 0.00 0.00 46 1010.1
20260505111010 55 232 4.0 8.0 0.00 0.00 0.00 46 1010.1
20260505110510 54 230 4.0 7.0 0.00 0.00 0.00 46 1010.0
20260505102010 55 252 4.0 8.0 0.00 0.00 0.00 46 1010.0
20260505101548 54 252 4.0 7.0 0.00 0.00 0.00 46 1009.9
20260505101017 55 241 4.0 8.0 0.00 0.00 0.00 46 1009.9
20260505100513 54 238 4.0 8.0 0.00 0.00 0.00 47 1010.0
20260505100039 55 247 5.0 8.0 0.00 0.00 0.00 46 1009.9
20260505095514 55 232 5.0 9.0 0.00 0.00 0.00 46 1009.8
20260505095012 55 246 4.0 9.0 0.00 0.00 0.00 46 1009.9
20260505094540 55 242 4.0 7.0 0.00 0.00 0.00 46 1009.8
20260505094011 55 244 4.0 8.0 0.00 0.00 0.00 46 1009.8
20260505093512 55 248 5.0 7.0 0.00 0.00 0.00 47 1009.8
20260505093037 55 251 4.0 6.0 0.00 0.00 0.00 47 1009.8
20260505092513 55 242 4.0 8.0 0.00 0.00 0.00 47 1009.8
20260505092011 55 244 4.0 8.0 0.00 0.00 0.00 47 1009.9
20260505091547 55 248 4.0 7.0 0.00 0.00 0.00 47 1009.8
20260505091011 55 242 4.0 7.0 0.00 0.00 0.00 47 1009.9
20260505090512 55 248 5.0 8.0 0.00 0.00 0.00 47 1009.8
20260505090041 55 257 5.0 8.0 0.00 0.00 0.00 47 1009.8
20260505085512 55 265 5.0 8.0 0.00 0.00 0.00 47 1009.8
20260505085010 55 257 5.0 7.0 0.00 0.00 0.00 47 1009.8
20260505084541 55 234 5.0 7.0 0.00 0.00 0.00 47 1009.8
20260505084013 56 271 4.0 7.0 0.00 0.00 0.00 46 1009.8
20260505083509 55 221 4.0 7.0 0.00 0.00 0.00 46 1009.7
20260505083037 55 232 4.0 7.0 0.00 0.00 0.00 47 1009.7
20260505082516 55 250 3.0 7.0 0.00 0.00 0.00 47 1009.6
20260505082014 55 226 4.0 9.0 0.00 0.00 0.00 47 1009.7
20260505081537 56 240 3.0 9.0 0.00 0.00 0.00 46 1009.8
20260505081019 56 258 4.0 9.0 0.00 0.00 0.00 46 1009.8
20260505080510 55 236 5.0 9.0 0.00 0.00 0.00 47 1009.8
20260505080039 55 250 4.0 9.0 0.00 0.00 0.00 48 1009.8
20260505075514 55 252 4.0 9.0 0.00 0.00 0.00 47 1009.7
20260505075016 55 229 5.0 9.0 0.00 0.00 0.00 48 1009.8
20260505074539 55 259 4.0 9.0 0.00 0.00 0.00 48 1009.8
20260505074011 55 233 4.0 9.0 0.00 0.00 0.00 48 1009.7
20260505073515 55 225 5.0 10.0 0.00 0.00 0.00 49 1009.6
20260505073050 55 238 5.0 10.0 0.00 0.00 0.00 49 1009.7
20260505072511 55 248 5.0 9.0 0.00 0.00 0.00 48 1009.6
20260505072013 55 258 6.0 10.0 0.00 0.00 0.00 49 1009.6
20260505071549 55 250 6.0 10.0 0.00 0.00 0.00 49 1009.7
20260505071010 55 254 6.0 10.0 0.00 0.00 0.00 48 1009.6
20260505070516 55 234 5.0 11.0 0.00 0.00 0.00 48 1009.6
20260505070033 55 240 6.0 11.0 0.00 0.00 0.00 48 1009.7
20260505065512 55 259 7.0 10.0 0.00 0.00 0.00 49 1009.6
20260505065009 55 252 6.0 9.0 0.00 0.00 0.00 49 1009.5
20260505064541 55 250 5.0 10.0 0.00 0.00 0.00 49 1009.6
20260505064010 55 259 5.0 10.0 0.00 0.00 0.00 48 1009.6
20260505063510 55 281 6.0 11.0 0.00 0.00 0.00 47 1009.7
20260505063035 55 250 6.0 11.0 0.00 0.00 0.00 47 1009.6
20260505062511 55 256 6.0 11.0 0.00 0.00 0.00 47 1009.6
20260505062012 55 227 5.0 12.0 0.00 0.00 0.00 48 1009.6
20260505061537 55 210 7.0 12.0 0.00 0.00 0.00 47 1009.6
20260505061013 55 255 6.0 15.0 0.00 0.00 0.00 46 1009.6
20260505060513 55 266 7.0 15.0 0.00 0.00 0.00 47 1009.6
20260505060047 55 268 7.0 11.0 0.00 0.00 0.00 47 1009.7
20260505055518 55 247 6.0 11.0 0.00 0.00 0.00 47 1009.6
20260505055012 56 228 8.0 14.0 0.00 0.00 0.00 47 1009.7
20260505054538 56 259 8.0 14.0 0.00 0.00 0.00 45 1009.5
20260505054013 56 246 7.0 13.0 0.00 0.00 0.00 46 1009.4
20260505053510 56 205 8.0 14.0 0.00 0.00 0.00 45 1009.5
20260505053041 56 268 8.0 14.0 0.00 0.00 0.00 44 1009.4
20260505052511 56 271 8.0 14.0 0.00 0.00 0.00 44 1009.4
20260505052011 56 249 8.0 14.0 0.00 0.00 0.00 44 1009.3
20260505051555 56 202 5.0 14.0 0.00 0.00 0.00 44 1009.5
20260505051013 56 257 6.0 15.0 0.00 0.00 0.00 43 1009.3
20260505050512 56 257 7.0 15.0 0.00 0.00 0.00 43 1009.3
20260505041543 57 263 9.0 18.0 0.00 0.00 0.00 40 1009.1
20260505041015 57 246 7.0 14.0 0.00 0.00 0.00 42 1009.1
20260505040513 57 288 7.0 14.0 0.00 0.00 0.00 43 1009.0
20260505040042 58 256 7.0 13.0 0.00 0.00 0.00 40 1009.0
20260505035510 58 272 6.0 17.0 0.00 0.00 0.00 42 1008.9
20260505035011 58 252 9.0 17.0 0.00 0.00 0.00 40 1008.7
20260505034546 58 285 9.0 15.0 0.00 0.00 0.00 38 1008.7
20260505034011 58 256 10.0 15.0 0.00 0.00 0.00 41 1008.6
20260505033512 58 304 7.0 12.0 0.00 0.00 0.00 42 1008.8
20260505033038 58 263 6.0 14.0 0.00 0.00 0.00 39 1008.8
20260505032513 58 275 9.0 14.0 0.00 0.00 0.00 39 1008.6
20260505032010 58 264 8.0 14.0 0.00 0.00 0.00 43 1008.6
20260505031551 59 267 6.0 12.0 0.00 0.00 0.00 38 1008.7
20260505031013 59 278 8.0 13.0 0.00 0.00 0.00 35 1008.5
20260505030511 60 238 7.0 11.0 0.00 0.00 0.00 36 1008.6
20260505030045 60 248 7.0 12.0 0.00 0.00 0.00 33 1008.8
20260505025516 60 280 7.0 13.0 0.00 0.00 0.00 33 1008.6
20260505025012 60 265 8.0 13.0 0.00 0.00 0.00 34 1008.6
20260505024540 61 252 7.0 13.0 0.00 0.00 0.00 33 1008.5
20260505024010 61 255 10.0 13.0 0.00 0.00 0.00 33 1008.5
20260505023511 61 256 9.0 16.0 0.00 0.00 0.00 32 1008.4
20260505023053 61 269 9.0 16.0 0.00 0.00 0.00 33 1008.4
20260505022515 62 243 9.0 15.0 0.00 0.00 0.00 34 1008.6
20260505022013 62 286 9.0 17.0 0.00 0.00 0.00 32 1008.4
20260505021544 62 259 9.0 16.0 0.00 0.00 0.00 31 1008.6
20260505021011 62 267 9.0 16.0 0.00 0.00 0.00 31 1008.6
20260505020513 62 252 11.0 16.0 0.00 0.00 0.00 30 1008.4
20260505020045 63 259 10.0 16.0 0.00 0.00 0.00 30 1008.4
20260505015511 63 254 10.0 16.0 0.00 0.00 0.00 31 1008.6
20260505015012 63 264 9.0 16.0 0.00 0.00 0.00 30 1008.4
20260505014545 63 248 9.0 17.0 0.00 0.00 0.00 30 1008.5
20260505014015 63 264 10.0 17.0 0.00 0.00 0.00 32 1008.6
20260505013513 63 280 10.0 14.0 0.00 0.00 0.00 31 1008.4
20260505013059 62 238 5.0 9.0 0.00 0.00 0.00 34 1008.6
20260505012512 62 244 5.0 10.0 0.00 0.00 0.00 33 1008.7
20260505012011 62 271 7.0 11.0 0.00 0.00 0.00 32 1008.8
20260505011540 62 261 7.0 11.0 0.00 0.00 0.00 32 1008.8
20260505011010 62 269 7.0 10.0 0.00 0.00 0.00 33 1008.8
20260505010517 62 270 5.0 10.0 0.00 0.00 0.00 33 1008.9
20260505005514 63 262 3.0 6.0 0.00 0.00 0.00 34 1008.9
20260505005014 63 274 3.0 6.0 0.00 0.00 0.00 34 1008.9
20260505004538 63 263 3.0 6.0 0.00 0.00 0.00 34 1008.9
20260505004013 63 276 3.0 7.0 0.00 0.00 0.00 32 1008.7
20260505003516 64 254 4.0 7.0 0.00 0.00 0.00 35 1008.7
20260505003037 64 260 3.0 8.0 0.00 0.00 0.00 33 1008.8
20260505002515 64 253 3.0 10.0 0.00 0.00 0.00 35 1008.8